GFSSE_500_spd_057.txt.gz
Wind_Speed
10 8 7 6 6 7 9 11 10 10 12 14 13 13 14 14 14 13 12 11 10 9 9 8 8 8 8 8 6 5 5 6 8 9 11 12 12 13 13 13 12 9 8
9 8 7 7 7 8 10 11 10 11 12 13 14 14 15 14 13 13 12 11 9 8 7 6 5 5 5 6 6 7 7 8 9 11 12 14 13 12 12 11 9 8 8
9 7 8 7 7 10 11 11 10 11 13 13 13 14 15 14 12 11 10 8 6 6 5 4 3 3 3 4 5 7 9 9 12 12 14 14 14 12 11 9 7 8 7
9 7 8 7 7 10 11 11 11 11 13 12 11 12 13 12 10 9 7 7 7 6 4 3 3 2 2 4 6 9 8 11 13 15 16 14 14 11 10 8 7 7 7
8 6 7 8 8 10 10 10 10 11 13 12 11 12 11 9 8 9 10 10 9 8 8 6 4 3 5 7 10 10 10 14 16 17 14 14 14 12 10 8 8 7 8
7 6 7 8 9 10 11 11 11 13 14 14 13 12 12 12 13 13 12 12 11 10 8 8 7 7 9 12 12 13 13 15 15 16 15 13 13 10 9 8 7 6 7
6 7 8 9 10 12 11 11 13 14 14 14 15 15 15 16 15 15 15 16 16 16 15 13 12 13 15 15 15 13 12 13 13 12 11 10 11 8 8 7 6 5 6
5 8 10 10 11 12 11 11 13 15 15 15 16 17 17 18 18 17 16 18 18 20 21 22 23 22 18 15 15 14 12 11 11 10 8 8 7 7 6 6 5 5 5
6 8 10 9 11 11 10 11 14 14 15 17 17 17 17 18 17 16 17 18 18 21 22 23 22 19 17 14 13 14 13 12 11 9 8 7 7 7 6 5 4 4 5
8 9 9 9 10 11 10 13 14 15 16 18 17 16 17 16 15 15 17 19 21 21 20 19 18 17 15 13 13 11 11 11 8 7 8 6 6 6 6 5 4 4 3
9 10 9 9 11 10 12 15 16 17 18 17 16 16 16 15 15 16 17 17 18 17 18 18 17 15 16 14 11 10 9 9 8 9 10 10 8 6 6 6 5 5 3
11 11 9 10 11 12 16 17 18 19 18 17 17 17 16 15 15 16 14 14 15 15 14 13 13 12 14 12 11 11 10 9 10 11 11 11 10 9 9 8 9 9 10
12 12 11 11 11 15 18 20 19 18 16 17 17 15 14 14 13 14 13 12 11 11 12 11 9 10 10 10 9 9 10 10 11 11 12 11 12 12 12 11 9 9 8
12 11 12 13 12 19 20 21 18 17 16 17 15 12 10 11 10 10 10 10 8 9 9 9 7 8 6 6 8 8 8 10 10 11 11 10 12 14 13 14 15 14 10
13 13 13 14 17 23 23 21 18 18 16 14 13 12 11 11 9 7 7 8 8 8 9 11 9 7 7 7 8 7 8 9 9 9 10 11 11 12 12 13 13 14 14
12 15 15 16 21 24 23 20 19 15 16 14 13 11 11 11 10 8 8 8 8 8 8 6 7 7 6 7 9 8 8 8 9 10 13 12 11 12 12 13 13 14 13
15 16 17 19 24 24 21 20 17 18 17 15 13 12 12 12 12 10 9 9 7 7 8 10 10 9 10 10 9 10 10 9 9 10 13 13 10 11 12 12 11 11 13
15 17 18 21 25 24 19 19 16 18 17 15 13 11 10 10 8 8 9 9 9 10 13 13 14 11 10 10 8 8 10 11 11 11 12 11 10 11 11 11 11 10 12
16 19 19 23 26 24 18 17 15 15 16 14 12 9 10 9 10 8 9 11 10 10 13 14 14 13 10 9 7 7 10 12 12 12 12 12 11 13 14 13 15 15 15
17 20 21 25 25 22 17 17 15 14 15 14 12 11 9 9 10 10 11 12 12 13 13 16 16 16 13 12 11 12 12 12 12 14 12 13 13 11 14 13 16 19 18
20 19 21 24 25 22 19 19 18 15 14 14 13 10 9 10 11 12 13 13 12 14 15 16 17 17 16 15 14 13 13 13 12 11 11 11 13 13 17 18 19 20 19
24 23 22 25 26 25 24 23 21 18 16 14 12 12 11 11 11 12 14 15 13 13 14 15 16 17 15 14 14 13 12 11 11 12 10 10 16 19 20 21 20 19 17
26 24 24 26 28 26 24 22 19 15 15 15 13 14 13 11 11 13 14 15 15 13 12 12 14 15 15 11 11 11 10 11 11 12 14 16 20 20 19 17 15 12 11
29 29 28 29 30 28 24 21 20 21 21 18 15 16 14 12 11 12 12 13 13 12 10 9 11 13 13 12 10 10 10 12 13 14 19 19 18 17 15 13 10 8 8
36 32 31 31 31 28 25 23 22 20 17 15 14 15 15 14 11 11 11 12 11 10 9 7 8 11 12 13 11 10 9 10 12 12 15 14 13 12 10 8 7 8 8
35 35 34 32 31 28 26 25 24 21 15 15 15 16 15 13 12 11 10 10 10 9 7 6 5 7 9 9 11 10 11 11 11 12 12 10 8 7 6 5 6 7 8

GFSSE_500_spd_060.txt.gz
Wind_Speed
8 8 6 8 8 8 10 12 14 15 16 15 16 15 14 14 13 12 11 11 11 10 9 9 8 7 6 5 3 3 5 7 9 9 10 12 13 12 12 10 9 8 9
9 8 8 9 8 9 10 13 14 16 16 16 17 16 14 14 13 12 10 9 8 8 7 7 6 5 4 4 4 3 5 8 10 11 12 13 13 12 11 9 9 8 7
8 8 9 9 9 10 11 13 14 15 16 16 17 16 14 13 11 9 8 7 6 4 4 4 3 4 4 5 5 8 7 8 11 11 14 14 12 9 9 7 7 6 6
9 8 9 9 10 11 11 12 13 13 15 15 14 14 13 10 8 7 6 7 5 5 4 3 4 4 4 5 9 7 9 10 12 14 14 14 12 10 7 7 7 7 8
8 7 9 10 10 11 12 12 12 12 13 13 12 12 10 9 8 8 8 7 6 6 4 5 6 7 7 9 7 5 9 11 13 14 13 13 11 10 8 8 7 8 8
7 8 8 11 11 12 12 11 11 13 13 12 11 11 11 11 11 11 11 11 10 7 8 9 11 12 13 12 11 11 12 13 13 13 12 11 10 8 7 7 6 7 7
7 8 9 10 12 11 11 11 11 14 13 13 13 13 14 14 14 15 15 16 14 15 14 15 17 17 15 13 13 13 14 13 13 13 11 10 9 5 5 6 5 5 6
6 9 9 11 12 11 11 11 13 14 14 15 16 17 15 17 18 18 16 19 22 22 22 22 21 17 15 13 13 12 12 11 10 8 7 8 6 4 4 3 3 4 4
7 8 9 10 12 12 11 13 15 16 16 18 18 17 16 19 19 17 18 19 22 22 21 20 18 16 13 12 13 12 11 11 9 8 7 7 6 5 5 4 3 3 3
10 9 9 11 12 11 13 16 16 17 18 19 18 16 15 17 19 20 20 21 20 20 19 17 16 14 13 13 11 12 11 8 8 7 6 6 6 7 6 5 4 3 2
11 10 10 11 12 13 16 17 17 19 18 18 17 15 16 17 16 16 18 17 18 18 17 15 14 13 12 10 10 9 8 8 9 10 8 7 7 6 7 7 5 5 3
13 11 10 11 11 16 18 19 19 19 18 17 17 16 16 16 16 15 15 15 13 13 14 12 12 11 10 9 9 8 9 9 10 12 11 11 8 9 8 8 8 9 10
14 12 12 12 12 17 20 20 19 18 18 17 17 15 16 14 14 12 12 11 11 9 9 9 8 8 10 8 9 9 10 11 11 12 13 13 12 12 12 10 9 9 10
14 13 13 13 15 19 21 20 19 18 18 16 13 12 12 13 11 9 8 8 8 7 7 7 6 6 7 9 9 10 10 10 12 11 12 13 13 13 13 15 12 11 12
15 14 15 15 19 21 21 19 18 19 17 14 13 12 11 11 10 8 7 7 9 7 8 7 6 6 7 8 9 10 9 10 11 10 12 13 12 12 11 12 11 13 12
15 15 16 17 23 23 20 19 18 17 14 13 12 10 9 9 9 8 8 8 6 6 4 4 5 7 9 8 9 11 10 10 12 11 12 13 12 11 11 11 11 11 11
17 17 17 20 25 24 20 19 15 16 14 13 12 12 12 12 11 9 8 7 7 7 5 8 8 9 11 10 11 12 12 11 12 12 12 12 10 10 10 10 9 9 11
18 19 18 22 26 24 20 16 15 16 15 14 14 13 13 11 9 9 10 11 11 9 8 9 10 10 10 10 11 13 14 12 11 11 12 11 9 9 10 10 11 10 12
20 20 21 25 27 23 20 15 15 16 15 15 12 11 9 10 10 13 13 12 12 11 13 12 11 9 9 9 10 13 14 14 12 10 12 13 12 12 13 13 14 16 18
19 21 21 26 27 22 18 16 14 13 14 13 11 11 9 11 12 14 13 12 14 13 14 15 14 12 12 11 12 13 13 14 15 12 11 12 12 13 13 16 17 18 19
19 21 22 24 26 23 17 18 18 16 14 13 12 9 9 12 14 16 15 13 14 15 15 16 17 16 15 14 12 10 11 12 13 14 11 13 14 15 16 18 19 20 18
21 22 23 25 26 25 22 22 20 17 15 14 11 10 9 11 15 15 15 14 14 14 13 16 16 14 14 14 13 10 10 9 8 11 14 17 18 19 19 19 18 17 17
23 23 24 26 27 26 24 21 18 16 15 14 13 11 10 13 16 17 16 15 13 13 13 14 14 13 12 10 9 9 8 9 9 12 16 19 18 17 17 16 15 12 11
27 27 28 28 29 27 24 21 19 19 19 17 16 15 13 13 15 17 16 14 13 11 11 11 12 12 12 10 9 7 7 7 11 15 16 16 14 13 11 11 9 6 5
34 31 30 31 30 28 25 23 23 21 17 15 15 15 15 14 14 14 15 14 12 11 10 9 9 11 11 11 11 11 10 8 9 12 12 12 10 8 7 5 5 5 5
36 35 33 32 31 29 27 25 24 20 17 16 16 17 16 15 15 14 13 12 11 9 8 8 7 8 9 10 11 11 12 11 9 7 7 7 5 4 2 4 5 5 4

GFSSE_500_spd_063.txt.gz
Wind_Speed
7 7 8 10 13 13 12 13 14 14 15 15 17 17 16 15 13 11 10 9 8 7 7 7 7 8 7 5 4 2 3 5 7 6 7 9 9 9 9 8 7 8 8
7 7 8 9 13 12 12 14 14 14 16 17 17 16 15 13 12 11 10 8 7 6 5 5 6 6 6 5 4 4 4 4 9 8 9 10 8 7 7 8 8 7 7
7 7 8 9 12 12 12 14 14 15 17 18 16 14 13 11 10 8 7 6 5 4 4 4 4 5 4 4 6 8 5 5 6 11 9 10 8 7 6 7 8 7 7
7 8 8 10 11 11 12 14 14 14 15 15 14 13 11 9 7 8 8 7 6 5 5 5 4 4 4 5 6 4 9 9 6 8 10 10 9 5 5 6 6 7 7
6 7 8 10 10 10 12 13 13 13 13 12 10 10 9 9 9 9 8 6 4 4 5 5 6 7 8 6 5 5 5 8 9 11 12 11 10 5 5 5 6 7 8
6 7 8 10 10 10 12 13 13 12 10 9 9 10 11 11 11 10 9 6 5 6 6 8 10 11 10 9 7 8 8 8 10 10 12 9 7 5 4 5 6 6 8
7 7 8 10 9 10 11 12 13 12 10 9 10 12 13 13 14 13 11 13 12 13 13 15 16 14 14 13 12 12 12 12 11 9 9 9 5 4 3 5 6 6 7
7 8 9 10 9 10 11 12 12 11 10 11 12 15 13 14 15 16 18 18 18 18 19 19 17 15 15 14 14 12 12 11 9 8 6 6 4 3 3 4 5 5 5
7 8 9 9 9 10 11 13 13 12 12 13 15 16 13 14 16 17 19 19 19 21 20 18 16 13 13 13 13 12 11 9 7 6 5 4 4 4 5 4 5 5 5
8 8 8 9 10 10 12 14 13 13 15 15 16 15 14 18 19 20 20 19 17 21 19 17 16 14 14 14 13 11 9 7 6 6 5 5 4 4 5 5 6 5 3
9 9 8 9 9 11 14 15 15 16 16 16 14 13 15 16 15 17 17 17 16 17 17 17 17 15 13 11 11 10 10 7 10 8 6 6 5 5 6 6 6 5 5
11 10 9 10 10 14 16 16 17 17 15 15 14 13 14 15 13 13 13 12 11 13 13 14 13 16 9 10 11 9 10 9 12 12 10 9 8 9 8 10 10 10 10
12 11 10 12 13 16 17 18 18 16 16 16 15 14 14 13 11 10 9 10 9 8 9 10 11 10 9 7 10 9 10 11 11 13 14 13 13 12 11 11 11 11 12
13 12 13 14 16 18 18 18 17 16 16 16 15 14 13 12 11 8 8 7 8 5 7 6 8 8 9 8 9 9 10 10 11 12 13 14 15 14 15 15 13 12 14
13 14 15 15 19 20 19 18 17 17 14 12 12 11 11 9 9 7 6 6 8 6 6 5 7 7 9 8 10 9 10 10 10 11 11 13 13 13 13 13 13 14 15
14 15 16 17 21 21 19 18 18 16 13 12 12 10 9 7 7 7 7 6 9 1 3 4 6 7 8 10 11 12 11 12 11 12 12 12 12 11 12 12 12 12 14
14 16 16 20 24 22 19 17 17 14 11 10 11 10 10 10 8 7 6 6 6 6 6 7 8 9 9 10 12 13 12 10 11 11 11 12 11 10 11 11 13 13 13
15 17 17 22 24 21 18 18 14 12 12 11 12 13 11 8 6 6 9 11 10 10 7 8 9 8 9 10 11 12 11 10 10 11 10 11 11 11 12 13 14 14 15
16 17 18 23 24 21 17 15 15 15 13 14 13 11 8 7 7 9 11 11 13 10 8 7 6 8 7 11 11 11 11 11 11 10 11 13 14 15 13 15 16 16 20
15 18 18 24 24 21 17 16 15 15 16 13 12 8 8 9 10 11 13 14 14 13 11 9 8 8 9 11 10 12 10 8 11 11 12 11 12 15 17 18 18 19 19
16 18 18 22 24 20 19 15 15 15 13 13 13 10 9 9 10 13 14 16 15 15 16 13 10 10 10 11 10 10 11 9 9 10 11 12 14 15 18 19 19 18 17
18 19 19 23 25 20 20 18 16 15 15 14 12 12 11 11 10 11 14 15 15 15 15 14 12 12 11 11 10 8 9 9 8 11 12 14 15 17 17 16 16 16 16
19 20 21 24 26 24 19 18 17 16 15 14 12 12 12 12 11 12 13 12 14 13 13 12 11 11 9 9 8 8 8 6 10 13 16 15 15 14 13 13 14 14 13
23 23 24 26 27 26 21 19 17 17 16 15 13 12 13 13 14 13 12 12 12 12 12 11 11 11 10 8 6 5 7 7 9 13 15 14 13 12 12 12 11 10 10
30 26 27 28 28 26 23 21 20 18 17 15 15 14 13 14 15 14 12 10 9 9 9 10 9 9 9 9 7 4 4 7 9 11 9 11 10 10 10 10 9 8 7
29 29 28 29 29 27 25 23 21 20 17 17 16 16 14 14 13 12 11 8 7 6 6 6 7 7 7 9 8 6 5 4 7 7 7 7 6 7 6 6 6 6 5

GFSSE_500_spd_069.txt.gz
Wind_Speed
10 11 12 14 13 15 15 14 14 15 15 14 13 14 13 12 10 10 10 9 9 8 7 6 7 7 6 6 5 3 5 6 9 12 13 14 14 12 12 12 12 11 11
9 10 11 13 13 13 15 14 14 15 15 14 13 12 11 10 9 8 7 6 6 6 6 6 6 6 7 8 7 6 5 6 10 12 12 13 12 13 12 12 13 12 11
9 9 11 11 12 13 14 14 14 15 15 14 12 10 10 8 6 5 4 4 5 5 6 5 5 5 8 8 8 8 9 9 11 14 11 12 12 11 12 13 12 13 11
8 9 11 11 11 12 14 14 14 16 15 13 12 9 8 6 5 4 3 5 6 7 7 6 6 6 9 8 10 10 10 13 13 12 11 10 11 11 12 12 13 15 14
8 9 11 11 11 11 14 14 15 15 14 12 11 9 9 7 6 5 7 7 7 8 9 11 12 12 10 10 11 9 11 11 12 12 10 10 9 11 12 12 13 15 15
7 8 10 11 11 10 13 14 14 13 13 13 13 12 12 11 12 12 12 12 13 13 15 15 15 15 14 13 13 13 11 9 11 14 10 8 9 11 11 11 12 13 15
7 8 9 10 11 10 13 13 15 14 15 16 16 15 17 19 20 19 18 19 19 19 17 16 16 15 13 14 14 15 13 15 15 11 10 9 9 10 9 10 10 10 11
7 8 8 10 10 11 13 15 17 17 17 18 16 18 20 21 22 22 21 21 19 18 17 17 16 15 15 16 16 14 13 13 12 13 9 9 8 9 9 9 9 8 8
6 8 7 9 10 12 13 16 19 18 18 18 16 18 21 22 22 22 21 21 19 18 18 17 17 15 15 16 17 16 13 11 12 11 10 10 9 11 8 8 8 7 7
5 7 7 8 10 12 13 16 18 17 17 17 17 22 21 21 21 22 22 20 20 20 19 17 16 16 16 16 18 17 14 13 11 11 10 10 9 10 11 10 9 6 7
4 6 7 7 10 12 13 15 17 16 16 17 16 18 17 18 18 18 18 17 18 15 18 16 15 16 17 16 17 17 18 15 13 12 12 13 15 14 15 14 13 12 15
4 5 6 8 11 12 13 15 15 14 14 16 14 13 14 14 14 15 12 14 15 12 16 12 11 13 18 18 16 17 20 19 17 16 15 16 17 17 18 18 19 22 22
3 4 6 8 12 12 13 14 13 13 13 14 13 12 11 11 9 12 9 9 11 10 11 11 7 10 17 17 16 17 18 18 20 20 20 20 20 20 19 19 21 23 23
5 5 5 8 12 13 13 12 12 12 12 11 12 10 8 6 6 6 8 7 10 10 9 11 12 10 17 17 15 17 17 18 19 19 20 21 20 18 19 19 21 21 21
4 5 5 8 13 14 14 11 10 12 10 11 10 7 7 3 5 6 7 3 10 10 10 9 12 12 13 15 17 13 16 16 18 18 19 18 19 19 19 18 18 19 20
6 5 6 8 13 15 13 10 9 11 8 9 8 3 7 4 5 7 4 8 6 10 7 9 10 9 12 13 16 14 15 15 17 16 17 17 18 19 19 19 19 20 20
5 4 5 8 13 14 11 12 9 6 5 7 6 4 4 5 6 3 6 9 9 10 11 11 9 10 10 10 15 16 14 13 14 14 15 17 18 19 21 21 21 23 24
5 5 5 9 13 13 11 10 9 3 5 4 3 4 6 4 6 7 9 8 8 8 10 11 12 9 11 11 12 11 15 13 13 12 15 18 21 20 21 22 23 23 24
5 5 7 11 14 12 11 11 9 4 4 5 6 4 6 6 9 7 9 7 7 7 8 9 10 10 9 9 10 9 12 12 13 16 18 18 20 22 22 23 23 23 25
5 6 9 12 14 10 10 11 8 6 6 6 6 3 6 8 9 10 8 10 8 9 10 10 10 10 9 12 11 10 12 14 15 17 18 20 22 21 20 22 23 24 25
7 8 11 13 16 12 11 10 11 9 9 7 6 8 10 11 6 12 10 11 8 12 12 10 11 11 11 10 12 10 11 14 15 16 18 21 19 21 19 21 22 24 24
12 10 12 14 18 15 11 11 12 12 8 7 8 11 10 10 13 13 9 11 10 13 12 11 13 12 11 13 11 12 13 12 16 17 19 20 17 19 19 21 21 22 23
13 11 14 15 20 17 14 12 13 11 7 7 8 11 13 10 10 11 11 11 10 12 11 10 10 12 12 11 12 11 13 14 16 17 17 19 16 18 18 18 18 18 18
14 14 15 16 19 19 15 14 13 13 11 7 6 9 12 12 11 10 9 8 9 9 9 9 8 8 10 11 12 12 15 14 17 15 17 17 13 16 15 16 17 14 16
13 17 16 18 19 22 17 15 15 15 13 10 8 8 12 14 13 10 8 7 7 8 7 7 7 7 7 9 12 10 14 15 15 14 15 14 13 14 14 18 17 17 17
11 15 17 16 18 22 20 16 16 16 16 13 11 10 12 13 12 11 8 5 6 4 4 5 6 5 5 5 8 9 12 13 13 13 12 11 13 14 14 16 18 19 20

GFSSE_500_spd_072.txt.gz
Wind_Speed
10 13 14 13 13 12 11 10 11 12 14 13 13 13 12 11 12 11 10 9 8 9 8 9 8 8 6 5 6 6 7 9 12 13 15 15 14 13 12 12 12 10 10
11 12 12 13 13 12 10 10 10 12 12 12 11 11 11 10 10 8 7 7 7 7 7 8 7 7 6 7 9 9 9 11 14 16 15 15 13 12 13 12 10 9 9
10 11 11 11 13 12 12 11 12 13 11 11 10 9 8 7 7 6 6 6 5 6 6 6 6 7 10 9 11 12 12 18 15 16 14 13 12 12 13 11 11 11 12
10 10 10 11 12 12 13 13 14 13 11 10 8 6 7 7 6 6 6 6 5 6 7 8 7 8 11 12 12 13 19 21 16 15 14 13 12 11 12 13 14 16 16
10 9 11 13 13 13 13 15 15 13 10 8 8 8 7 7 7 7 7 7 8 10 10 11 10 10 10 11 12 12 14 18 16 15 13 12 11 11 12 13 16 16 16
10 9 11 13 14 12 13 14 13 12 10 10 11 10 11 10 10 10 12 12 14 15 15 14 13 13 12 13 14 13 13 17 15 15 12 11 10 10 12 13 14 14 15
10 9 11 14 13 13 14 14 14 14 15 15 15 16 15 14 16 17 17 18 18 17 16 15 13 13 14 14 14 15 19 17 15 14 11 11 9 11 12 11 10 11 12
11 10 10 14 13 14 15 16 16 17 18 17 18 17 18 19 20 21 20 19 18 18 17 16 16 14 14 14 13 13 16 16 15 11 10 9 9 11 10 9 9 9 9
9 10 10 12 14 15 16 16 17 17 17 18 19 18 19 19 19 19 19 19 18 18 16 18 18 16 14 13 13 14 13 15 14 12 11 10 11 10 9 8 7 7 8
9 9 10 12 15 16 17 17 16 16 18 18 19 19 19 19 19 20 19 18 18 19 18 16 19 17 15 14 14 14 14 13 13 11 10 8 11 10 10 10 9 9 10
7 9 10 12 15 17 18 17 14 16 19 20 19 18 16 15 16 17 16 17 18 18 17 16 15 18 16 17 17 16 17 16 14 12 14 15 16 15 14 14 16 19 21
7 9 8 12 15 16 17 17 14 14 15 16 16 14 12 13 13 13 13 12 13 13 14 14 14 16 19 19 18 18 17 16 15 17 17 15 17 17 19 22 22 25 24
6 8 7 12 14 15 15 13 12 13 13 11 12 9 9 9 10 9 10 10 12 11 9 12 11 14 16 16 18 20 20 19 20 19 19 18 20 19 21 22 23 22 20
5 7 6 11 14 15 15 11 10 11 12 11 8 6 8 7 9 9 10 10 9 12 13 12 12 14 14 17 16 18 20 18 20 21 20 19 20 19 20 19 19 19 20
6 6 5 10 14 15 14 11 10 9 10 9 6 3 4 5 6 7 10 7 8 12 12 12 15 15 14 16 16 16 19 18 20 20 20 20 21 19 19 20 19 19 21
5 5 5 9 13 15 14 13 10 7 7 8 5 2 2 4 6 8 8 10 10 12 13 12 15 16 13 18 14 16 16 17 19 20 20 20 21 20 20 22 24 25 27
4 3 5 11 14 13 13 14 10 7 4 5 2 4 4 5 6 9 10 11 13 12 11 11 15 14 14 15 15 15 15 16 17 18 17 19 21 21 22 23 24 26 26
8 7 7 11 13 12 13 12 10 6 6 3 2 4 5 6 6 7 9 10 13 11 10 10 12 14 14 12 15 16 16 16 15 19 19 21 21 22 24 23 23 24 23
10 9 8 11 14 13 12 13 8 8 6 5 5 4 6 7 7 7 9 9 9 10 9 11 12 13 13 15 16 17 16 19 18 20 21 21 23 22 22 22 23 23 24
9 8 8 12 14 11 9 12 7 8 8 9 4 3 6 6 8 12 11 10 12 11 9 12 15 14 13 16 16 17 15 17 19 19 21 21 21 21 22 22 24 24 26
10 9 11 11 14 12 12 11 8 9 10 7 3 7 9 4 10 13 12 14 15 14 15 13 15 15 13 13 16 16 15 15 16 19 21 20 19 21 20 21 24 26 28
13 11 13 13 16 12 11 10 9 9 8 7 7 9 9 10 11 14 13 13 16 13 14 15 16 15 13 14 14 16 12 14 16 17 17 17 18 21 20 21 22 25 26
15 13 14 15 19 15 10 10 8 8 5 7 8 10 8 11 11 13 13 13 11 13 13 14 14 15 16 14 14 12 15 15 17 15 14 15 15 17 19 20 20 21 21
17 16 16 16 20 19 13 13 11 10 7 9 8 9 11 9 9 10 11 12 11 12 12 13 12 13 15 15 14 13 15 16 15 14 11 13 13 16 18 17 19 17 17
19 18 18 19 20 22 17 14 13 11 8 9 9 8 8 9 8 9 9 9 9 9 11 10 10 11 12 15 15 15 15 16 15 12 10 12 12 17 19 17 18 18 18
19 23 19 18 20 24 21 17 15 13 12 11 10 10 10 10 9 8 8 7 7 8 8 8 7 8 9 11 15 18 15 14 14 12 12 13 13 16 18 20 20 20 17

GFSSE_500_spd_075.txt.gz
Wind_Speed
9 8 8 10 11 11 9 8 9 10 12 12 11 10 9 9 9 8 8 7 7 7 8 9 10 8 7 7 6 6 7 10 13 14 12 13 13 13 13 12 11 11 11
11 7 8 11 12 12 13 11 12 12 13 12 11 9 8 7 6 6 5 6 7 7 8 8 8 8 8 6 6 6 9 12 13 13 14 13 13 13 13 11 11 10 12
9 8 8 10 11 12 13 12 13 13 12 10 8 7 5 4 4 4 5 6 7 8 7 7 10 11 10 9 7 7 13 13 13 13 14 14 13 13 14 13 14 14 15
9 10 9 11 12 14 14 14 12 11 9 7 5 5 5 4 4 6 6 7 8 9 10 10 11 10 10 11 10 11 20 16 15 15 14 14 14 14 14 14 17 17 16
9 11 11 12 13 13 14 14 12 11 9 7 7 6 5 6 6 7 8 10 11 12 12 12 11 9 10 11 13 15 19 16 15 14 15 14 13 12 13 15 17 17 16
9 12 12 13 13 12 13 11 11 11 11 10 9 8 8 8 8 10 12 14 14 14 14 14 13 12 11 12 11 14 18 16 16 15 14 12 12 11 11 13 15 15 14
11 12 12 13 13 12 12 12 12 13 13 12 13 12 12 11 12 14 16 16 15 15 16 16 15 14 14 13 13 18 18 16 14 14 12 11 10 10 10 10 11 11 12
12 12 12 14 13 12 13 14 15 14 14 15 15 16 16 16 17 17 16 15 14 16 16 16 14 15 15 13 15 18 14 15 13 12 11 9 9 8 8 8 9 10 12
9 12 13 14 14 13 14 15 16 15 17 16 16 16 17 16 17 16 15 13 13 14 15 16 15 16 16 14 13 15 15 14 12 11 10 8 7 8 7 7 8 10 12
9 11 13 13 14 14 16 16 16 16 16 17 16 17 18 17 17 16 15 14 14 15 14 14 16 17 18 16 14 15 13 12 12 8 8 8 8 8 8 9 10 11 17
8 9 12 14 16 15 15 16 17 18 17 18 16 17 16 17 15 14 13 13 15 17 17 15 15 18 18 18 16 14 12 13 13 12 13 12 12 12 15 15 17 21 20
8 9 10 13 16 16 15 15 18 18 16 15 14 14 13 14 11 10 11 12 11 15 14 14 14 17 18 20 18 17 15 15 14 13 15 15 17 21 20 23 23 22 20
7 8 11 12 16 16 15 13 13 14 13 11 12 10 9 10 12 9 9 10 11 11 14 13 12 15 17 18 21 20 19 18 16 16 17 17 18 20 20 21 20 20 19
7 7 11 11 15 15 15 12 11 10 9 8 8 9 8 9 11 8 9 10 11 15 13 11 11 14 15 17 18 20 19 20 17 18 18 18 19 19 19 19 20 19 20
9 9 11 12 14 14 15 12 11 9 8 6 6 7 8 8 9 8 7 10 11 14 14 12 9 12 16 15 17 18 19 16 16 18 20 18 17 19 21 21 21 23 24
10 9 12 12 14 13 15 13 11 9 7 8 7 5 7 8 7 10 10 12 12 15 15 13 13 12 16 16 15 17 17 17 17 17 20 20 20 22 25 26 25 26 25
12 11 11 13 13 13 12 14 11 9 6 5 6 5 5 6 9 11 13 15 12 14 16 15 13 15 14 16 15 13 14 13 17 19 22 22 22 24 26 26 25 25 24
13 13 10 12 14 14 13 13 8 9 8 5 4 4 4 9 11 11 13 14 13 14 16 14 13 14 16 17 15 11 13 14 18 22 23 23 23 23 24 22 23 24 25
14 13 13 14 14 12 13 11 7 7 7 7 6 4 6 10 11 12 11 10 11 12 13 15 13 14 15 19 14 13 15 19 20 21 23 22 21 21 21 21 24 25 26
11 11 10 17 16 12 11 11 8 7 8 8 4 4 8 11 13 12 11 10 10 12 11 13 15 16 15 18 18 18 17 19 19 20 20 20 19 20 20 22 24 26 24
13 14 14 19 19 16 15 11 10 8 8 6 5 8 11 11 13 12 14 13 11 11 12 10 14 17 16 16 16 18 18 17 18 17 16 17 18 20 20 22 26 24 25
19 18 19 22 20 16 16 12 9 8 7 5 8 8 9 10 12 13 15 14 13 13 12 11 12 13 15 15 15 16 17 17 16 14 13 14 15 19 21 25 24 21 23
16 16 20 26 23 19 15 13 13 12 7 8 10 8 10 10 11 11 13 14 15 14 12 10 12 12 11 14 13 15 15 16 14 13 12 11 15 18 22 23 21 19 20
23 18 19 23 24 21 19 16 16 14 13 12 12 10 11 11 10 10 10 14 14 13 13 13 12 11 11 11 12 14 16 14 12 12 10 8 12 14 18 20 18 16 17
23 20 21 20 23 21 19 18 15 12 13 13 14 12 9 10 11 11 9 11 13 12 11 13 14 11 9 10 13 14 13 14 13 10 9 10 10 11 15 16 14 14 14
24 23 21 21 25 24 20 18 16 13 14 15 15 14 12 10 10 9 8 7 9 10 10 10 12 13 11 10 14 15 13 13 12 10 11 14 12 13 15 15 15 13 11

GFSSE_500_spd_078.txt.gz
Wind_Speed
6 5 4 7 7 8 8 9 10 12 13 13 12 11 10 9 8 7 7 7 7 7 7 6 7 6 6 7 8 8 10 11 13 14 13 13 13 13 13 12 12 13 14
9 8 6 8 8 7 8 9 11 12 11 11 10 9 8 6 6 5 5 6 7 7 6 5 5 6 6 8 9 10 11 13 13 14 13 14 14 13 12 11 12 14 15
9 10 8 9 9 9 9 11 12 10 9 8 6 4 4 3 3 4 5 5 5 6 6 5 6 7 7 8 8 12 13 14 12 13 15 14 15 14 13 14 16 16 15
9 12 12 12 12 13 12 12 12 10 8 5 3 3 3 3 5 6 6 6 6 6 7 6 6 8 9 8 6 17 15 14 13 14 16 13 14 14 16 17 18 17 17
10 13 13 15 16 16 15 14 12 9 6 5 5 5 5 6 7 10 11 10 9 9 8 6 6 8 9 10 19 20 16 14 13 15 14 13 14 14 16 17 17 16 16
10 13 14 15 15 14 14 13 11 10 9 9 11 11 10 11 12 13 14 14 13 12 11 10 9 9 9 11 16 20 16 14 13 14 13 12 12 12 14 15 15 15 15
11 13 13 14 14 12 13 14 14 13 13 14 15 14 15 14 15 15 15 15 14 13 13 12 11 11 11 9 14 22 17 12 13 12 11 10 11 10 11 13 13 13 13
12 13 12 14 14 14 14 16 16 15 16 18 17 17 17 16 15 15 15 14 12 12 13 14 14 12 12 16 18 19 16 13 12 10 9 9 9 9 10 10 10 11 12
10 13 13 14 14 15 16 15 16 15 17 18 18 18 17 15 15 14 15 13 12 11 14 16 16 13 13 15 17 16 12 11 11 9 9 7 6 8 9 9 9 10 12
10 12 13 13 14 15 15 14 15 15 18 19 19 19 18 17 15 15 16 14 14 13 14 16 16 13 14 15 15 14 12 10 10 8 7 6 6 7 8 9 10 13 14
11 11 12 13 15 16 15 14 15 16 17 18 18 17 17 15 15 16 16 16 15 16 16 14 14 14 16 17 14 13 13 13 15 12 11 9 10 11 13 14 16 16 15
12 14 12 13 14 15 16 16 16 15 15 15 16 16 16 15 14 14 13 12 13 15 15 14 15 15 15 18 17 16 15 15 15 13 13 15 16 17 19 20 17 16 17
11 14 14 13 14 14 16 15 14 13 13 13 13 12 14 13 12 11 11 12 13 15 15 14 14 16 17 17 18 18 18 20 19 16 15 17 18 20 20 18 18 17 17
11 13 14 14 15 13 14 14 12 11 11 10 10 11 11 10 9 11 10 12 14 13 14 14 13 16 17 18 19 19 21 22 19 17 17 18 17 18 18 19 20 19 19
11 13 14 15 15 13 14 13 11 9 8 8 8 11 10 9 10 10 10 12 12 11 14 15 13 14 15 15 17 18 20 18 17 17 15 16 18 19 20 21 21 21 21
12 12 15 15 15 12 14 13 11 8 7 8 9 10 9 10 12 12 12 13 14 10 12 14 15 14 15 15 15 16 18 16 16 17 17 19 22 23 23 23 23 22 22
14 14 16 16 16 12 13 12 11 10 7 6 8 11 11 12 12 13 14 15 14 12 13 13 14 15 14 15 14 14 13 13 15 19 19 22 24 24 22 23 22 22 22
15 17 17 18 16 15 15 12 9 9 8 7 10 11 9 11 12 14 13 15 15 14 14 13 13 16 15 15 14 13 12 14 18 19 20 21 23 22 20 20 22 23 22
16 18 19 19 17 15 15 11 11 8 7 10 11 10 8 10 12 13 13 14 13 15 15 17 14 14 16 15 16 13 12 16 18 18 18 18 19 18 19 20 22 22 22
16 16 20 20 18 15 14 9 9 9 10 10 10 10 9 11 12 13 14 13 13 13 13 15 17 14 16 16 17 15 14 16 17 15 14 14 15 16 18 21 21 21 22
18 17 21 21 20 17 15 10 8 11 10 9 10 12 12 13 13 12 14 13 11 13 14 13 15 16 16 17 17 16 16 16 15 13 12 12 12 16 18 20 19 21 21
20 20 23 21 18 17 16 11 8 9 9 10 11 11 15 15 15 13 13 13 12 10 13 13 13 15 17 17 16 14 15 16 14 13 12 12 12 14 19 17 18 18 17
15 15 21 23 20 16 15 12 11 11 11 14 12 14 15 16 16 12 12 13 11 10 12 13 12 13 15 16 16 14 14 14 11 10 11 13 14 16 19 16 16 14 14
22 20 18 24 21 17 18 17 15 12 11 15 15 15 15 17 16 14 12 13 14 12 12 11 10 12 13 14 14 14 14 12 9 9 10 13 14 17 17 14 14 12 12
21 22 21 23 21 18 19 17 15 12 12 13 15 17 16 15 15 15 14 12 12 13 12 12 10 10 10 14 15 15 13 12 9 8 8 10 10 13 14 12 12 11 8
23 20 22 22 25 21 19 17 17 15 16 15 15 15 18 16 15 14 14 14 11 11 12 11 11 11 11 14 17 16 14 12 11 8 8 10 10 11 10 10 11 9 9

GFSSE_500_spd_084.txt.gz
Wind_Speed
11 10 10 11 13 14 16 16 15 13 12 12 11 10 9 9 8 7 7 6 6 6 5 5 4 4 5 6 8 9 9 10 9 10 10 10 11 11 11 11 12 11 13
14 13 12 12 14 14 15 14 13 12 11 10 9 8 8 7 7 6 7 7 7 6 5 5 6 6 7 7 9 10 9 11 9 10 10 10 11 11 12 13 12 13 13
13 14 12 12 13 14 14 13 11 10 9 8 7 7 7 7 7 6 6 6 6 5 3 4 5 7 8 10 11 11 11 11 9 12 11 10 11 13 13 13 13 13 12
13 14 13 13 14 14 13 12 10 8 8 8 8 8 9 9 7 7 6 5 5 5 4 4 4 7 12 15 15 14 13 12 12 13 13 13 15 15 14 13 13 13 13
14 16 16 16 15 13 12 11 9 9 11 10 9 8 9 10 9 9 8 6 5 3 2 0 2 7 11 18 20 16 14 12 12 13 14 15 16 15 13 12 12 12 12
15 17 17 17 16 14 12 11 12 13 13 13 12 11 12 11 10 9 8 7 6 5 3 1 6 10 10 20 23 17 15 13 13 13 14 14 14 13 11 11 10 10 11
16 16 16 16 16 15 15 15 14 15 16 15 15 14 14 14 11 10 8 8 8 8 5 6 16 6 16 25 22 16 16 14 13 13 12 11 11 10 9 9 8 8 8
15 16 15 16 16 16 16 17 17 16 17 17 17 15 13 13 11 10 11 9 10 9 8 9 16 17 20 27 18 15 14 14 13 12 11 9 9 8 7 7 6 5 5
13 16 16 16 18 17 18 17 17 17 17 17 16 14 13 13 12 11 12 12 12 11 10 9 20 22 25 22 16 14 13 14 13 11 10 9 9 8 6 7 7 5 1
13 15 15 15 17 19 17 17 18 17 17 16 16 15 15 13 13 12 13 13 13 14 13 11 12 19 21 18 15 13 12 12 11 10 9 8 8 7 7 10 9 10 8
14 15 14 14 15 18 19 18 18 17 16 15 15 16 15 14 14 14 13 14 15 15 14 10 11 15 18 16 14 13 12 12 12 12 10 9 10 11 12 11 13 16 18
16 15 15 13 14 18 18 16 15 15 15 15 14 14 15 13 12 11 12 13 15 16 15 13 15 21 18 17 16 15 15 15 16 16 15 15 16 15 14 14 14 15 19
18 16 15 14 14 16 16 14 14 15 15 14 14 13 13 13 12 13 13 14 14 14 16 15 15 16 17 16 16 18 18 18 18 19 19 19 17 16 15 15 16 16 19
18 16 16 15 15 15 13 12 11 11 12 12 12 13 11 10 10 13 14 14 14 14 15 17 17 17 17 17 18 20 20 20 20 18 17 16 16 16 15 15 14 15 17
18 17 15 14 14 13 10 10 9 8 8 9 10 11 10 10 10 12 13 13 15 14 13 14 16 15 16 15 16 17 19 18 16 16 16 15 16 16 15 14 14 16 17
18 17 16 14 12 12 10 9 8 9 10 8 9 10 11 11 10 12 12 12 14 14 12 13 13 13 13 14 14 14 16 17 16 16 16 15 15 15 16 16 17 17 18
19 19 15 14 12 11 12 10 9 6 7 8 10 12 13 13 11 11 12 12 13 14 13 13 13 13 13 13 13 14 15 15 15 15 15 14 14 15 17 17 18 20 20
19 19 18 15 13 11 11 10 9 6 7 8 10 13 13 12 11 10 11 12 14 13 14 14 13 12 12 11 12 14 16 16 16 16 14 14 13 14 17 18 20 19 19
20 20 19 17 14 11 9 9 9 7 7 8 10 12 12 12 9 9 10 11 11 13 13 13 12 11 11 11 12 14 16 16 16 15 13 13 13 14 15 16 17 19 20
18 19 18 17 16 13 9 9 9 9 9 9 9 12 12 11 11 10 10 10 9 12 13 12 13 12 11 12 12 13 15 15 13 13 12 12 14 14 14 13 15 17 19
18 19 19 18 17 17 11 8 8 10 9 11 10 11 11 11 11 11 12 11 10 10 11 12 13 14 13 13 13 12 12 12 11 10 9 11 14 15 13 13 14 17 17
19 19 20 20 19 16 10 9 9 10 10 11 11 12 12 12 11 11 12 12 12 10 13 12 13 14 15 14 12 12 10 10 10 10 11 11 12 11 12 13 15 13 14
18 20 22 22 20 18 14 12 10 10 11 13 13 13 14 12 11 10 10 12 12 13 13 13 13 14 14 12 11 10 9 8 7 8 11 11 13 11 12 13 12 12 12
21 20 21 24 21 19 18 14 11 9 11 13 14 13 14 13 11 11 10 10 11 12 13 12 13 12 12 11 9 9 8 7 6 7 9 11 13 11 11 13 12 11 10
19 19 20 24 23 21 21 16 13 12 13 15 16 15 14 14 13 12 11 9 8 9 10 10 11 11 11 11 9 8 8 7 7 8 9 11 14 10 9 10 8 8 9
21 20 20 23 24 22 21 18 14 14 15 15 16 16 16 15 14 14 13 11 10 8 9 10 10 11 10 10 10 9 8 8 7 9 12 13 13 10 7 8 6 6 8

GFSSE_500_spd_087.txt.gz
Wind_Speed
11 11 13 13 14 14 16 16 15 14 12 11 10 9 7 7 6 4 3 2 1 1 1 2 2 2 3 5 9 10 11 11 10 9 8 8 9 10 10 10 10 11 11
13 12 13 14 15 15 15 14 12 11 10 9 8 7 6 5 5 3 3 2 2 0 0 1 1 1 2 6 7 9 11 11 8 9 8 9 11 11 11 11 10 11 11
13 13 13 14 15 15 14 11 9 8 7 6 6 6 6 6 5 4 3 2 2 0 1 2 2 3 4 6 9 9 9 11 7 9 8 9 11 11 10 11 10 10 10
13 14 14 15 14 13 12 9 6 5 5 6 7 7 8 7 6 4 4 3 2 1 1 0 2 5 7 11 12 11 12 11 8 12 11 13 12 11 10 10 10 10 11
14 15 15 15 14 12 9 7 7 6 7 8 7 9 9 8 8 8 6 4 4 2 1 1 3 5 8 16 13 12 13 11 12 13 13 14 13 11 10 9 10 10 10
15 16 16 16 14 11 9 10 10 9 10 10 10 11 12 11 10 9 7 6 5 4 3 5 9 7 9 19 15 13 13 12 14 14 13 12 11 10 8 8 8 8 8
16 16 15 14 14 13 12 13 13 12 13 13 13 13 13 12 11 10 9 7 6 4 2 6 6 6 7 20 15 13 13 12 13 14 12 10 9 9 7 6 6 6 6
16 16 16 15 15 16 15 15 14 14 15 14 14 14 13 12 11 10 10 9 9 7 5 6 13 15 29 20 15 13 11 12 12 12 11 9 8 7 6 6 4 3 4
13 15 15 15 16 15 15 16 15 16 15 14 13 13 13 12 11 10 11 11 11 12 15 21 26 27 23 17 15 11 9 11 11 11 10 9 8 7 7 7 6 3 1
12 13 13 16 15 15 16 15 15 15 14 13 12 12 15 13 11 11 12 13 13 14 14 18 25 24 16 15 13 11 9 9 9 9 9 9 8 9 10 9 7 4 4
12 12 13 14 14 15 16 15 14 14 13 12 11 12 13 13 12 12 14 16 16 16 20 17 19 18 17 13 10 9 8 9 11 11 11 12 12 12 10 12 15 15 14
12 11 12 14 15 15 13 13 12 13 12 12 11 11 10 11 10 11 14 15 16 17 20 24 16 14 17 18 14 13 14 15 16 16 16 15 14 13 12 14 17 21 21
14 12 12 14 14 14 12 11 12 10 12 12 10 9 11 11 11 11 13 14 16 19 20 18 14 13 19 18 16 18 18 20 21 21 19 16 15 15 15 17 20 21 21
16 13 12 14 13 12 10 8 8 10 10 9 9 9 9 11 12 11 12 14 15 21 22 14 16 16 17 16 19 20 22 22 21 19 17 16 15 15 15 16 17 18 18
15 14 13 13 13 11 8 6 6 6 7 8 8 8 7 10 11 12 11 14 14 15 16 15 16 15 15 16 18 18 18 20 19 18 16 15 15 16 16 16 17 17 18
17 14 13 13 12 10 7 5 5 8 7 8 7 9 8 9 11 12 11 12 16 16 10 10 8 13 14 14 14 14 16 19 18 17 16 16 18 18 17 17 17 18 19
17 16 13 11 11 9 7 5 5 5 6 8 8 8 8 10 11 13 11 10 12 12 11 11 12 13 14 13 13 13 14 17 18 18 18 19 18 17 17 18 20 21 21
18 17 15 12 9 8 7 6 3 4 6 7 8 9 8 9 9 12 11 9 9 8 11 11 11 11 13 14 14 15 15 17 19 19 19 18 17 16 19 20 20 21 20
17 17 15 12 10 8 7 6 4 2 5 7 7 8 8 8 8 9 12 10 8 7 8 8 11 11 12 13 15 15 15 16 17 18 17 16 17 17 17 18 19 19 19
16 16 16 14 12 10 6 4 4 3 4 7 6 6 7 7 7 9 9 10 8 7 7 6 9 11 12 11 12 15 14 14 14 14 14 15 16 17 16 18 17 17 18
16 18 18 16 14 12 8 5 4 4 5 7 7 6 7 7 7 8 8 7 8 7 7 7 8 10 10 10 11 12 13 12 12 11 13 13 14 15 16 17 16 16 15
16 19 19 18 15 12 9 8 6 6 4 6 7 7 10 9 9 8 9 6 7 8 8 7 9 10 11 9 9 9 12 11 10 11 12 14 13 13 13 15 13 13 15
17 19 21 20 17 14 11 10 9 7 6 7 8 8 10 11 11 10 10 10 8 8 8 9 10 10 9 9 8 10 9 10 11 11 11 12 11 12 11 11 10 12 12
19 18 20 21 19 16 14 11 7 6 7 8 9 9 10 10 12 12 11 12 10 9 7 8 8 8 7 6 7 7 8 9 6 12 12 12 10 11 11 9 9 10 11
18 16 16 19 19 18 16 12 8 8 9 14 11 10 9 9 9 10 10 12 10 10 9 7 7 7 6 4 4 5 6 7 7 6 10 13 10 9 8 7 6 8 10
18 17 14 16 20 19 18 15 10 11 10 11 11 11 10 8 8 9 9 11 11 10 10 9 7 7 7 6 5 4 4 4 6 8 10 9 8 7 6 5 5 7 9

GFSSE_500_spd_093.txt.gz
Wind_Speed
13 15 16 16 15 15 14 12 11 10 9 8 7 5 6 6 6 7 8 8 9 9 8 8 8 10 11 12 14 14 14 14 13 13 14 13 13 13 14 14 14 16 16
14 13 15 15 15 13 11 10 9 7 6 6 5 4 4 4 5 5 6 6 6 7 7 8 7 9 10 11 13 14 14 14 14 12 13 14 13 14 15 15 15 16 16
14 13 14 13 13 11 9 7 6 6 5 5 4 4 5 5 5 6 6 6 6 6 7 8 8 9 8 10 12 13 14 14 12 12 11 14 14 15 14 14 16 17 16
13 13 13 12 10 10 7 7 7 7 7 7 7 7 6 7 8 8 7 6 6 6 6 7 8 10 9 10 13 16 14 11 15 13 13 14 14 14 14 15 16 16 16
13 14 13 11 9 9 9 11 11 9 10 10 10 10 10 10 10 10 8 7 7 6 5 5 7 12 11 12 12 15 14 11 13 13 15 14 14 14 14 14 14 14 14
13 13 13 11 10 12 13 12 11 12 12 12 12 12 11 11 11 9 9 8 7 6 4 4 6 11 14 12 13 15 14 12 14 12 14 15 14 13 12 13 13 13 13
14 12 13 13 12 13 13 13 13 14 13 13 14 12 11 10 11 10 9 9 6 4 2 4 8 13 18 14 13 14 12 11 12 12 14 14 14 12 11 11 11 12 13
15 13 14 15 13 14 15 15 14 13 12 12 13 12 11 11 13 12 13 13 10 8 5 9 15 18 17 16 15 14 11 11 10 12 13 14 13 12 11 10 11 11 13
14 14 14 14 15 15 14 13 12 13 12 13 12 12 12 13 14 14 16 18 19 13 15 16 23 24 19 16 16 14 11 9 10 11 14 13 14 12 9 8 11 13 13
14 15 14 14 14 13 13 12 12 12 13 12 11 13 12 14 15 14 16 21 25 26 29 31 27 21 16 14 15 12 11 11 11 12 13 16 18 16 12 8 12 14 15
13 14 14 14 13 14 14 14 12 12 13 12 11 13 13 14 16 15 18 18 21 22 22 22 22 20 17 13 12 11 12 13 12 14 17 20 21 22 20 22 22 21 21
13 12 13 14 12 14 14 15 13 12 13 13 11 12 14 14 17 16 18 21 21 15 14 17 18 16 14 13 12 11 15 15 16 19 21 23 24 25 28 30 29 27 25
12 11 11 12 12 12 13 14 14 12 11 12 11 14 14 9 16 18 19 22 23 28 24 20 10 18 17 16 16 17 20 20 20 22 24 25 25 27 29 30 29 27 25
9 10 10 10 10 10 10 12 11 11 11 11 12 15 11 8 16 16 21 24 29 19 22 21 18 18 20 21 21 22 23 22 23 23 25 24 24 26 26 27 27 27 26
9 8 9 7 9 8 10 14 14 12 8 11 14 13 11 11 13 10 24 29 16 24 24 23 19 21 22 23 21 20 21 24 25 25 25 24 23 23 24 26 27 26 24
8 5 6 5 6 7 9 13 12 11 11 10 12 13 12 12 11 19 24 23 22 22 25 21 19 19 23 21 21 20 23 24 26 27 24 23 21 22 24 26 26 25 24
9 8 6 4 5 6 7 10 13 15 10 11 12 12 11 11 14 15 19 21 22 19 19 23 20 21 20 22 24 24 23 24 25 26 25 24 24 24 24 24 24 25 25
6 5 4 4 3 5 6 11 12 13 11 11 12 11 11 12 14 14 16 19 21 19 19 22 22 24 21 23 24 25 24 23 23 25 27 26 25 24 23 23 23 24 25
8 6 5 2 2 5 5 8 11 11 11 11 12 9 9 10 13 13 15 14 19 17 19 22 22 23 22 24 22 23 23 21 22 21 25 25 25 23 22 23 23 23 22
9 9 7 4 3 4 6 6 10 10 9 9 11 9 8 9 13 12 12 14 15 18 18 20 20 20 20 20 18 16 19 21 23 19 22 23 22 22 21 20 21 20 19
10 11 9 6 4 3 3 6 7 9 8 9 10 10 8 9 9 10 12 14 10 15 16 18 19 18 18 17 16 13 12 18 23 21 20 20 19 21 18 17 18 17 16
11 11 12 9 7 4 5 4 6 9 7 6 8 9 11 11 11 11 10 13 11 13 14 13 16 17 17 13 16 11 8 13 17 21 21 18 19 18 12 15 16 14 13
13 12 14 12 10 7 4 2 4 4 7 5 4 8 11 10 11 9 12 10 11 12 12 14 11 13 13 10 8 14 10 11 13 16 20 19 18 16 13 14 12 12 11
15 13 14 13 13 10 7 4 3 8 4 4 1 4 6 11 12 10 8 9 9 12 12 12 11 12 12 10 8 9 8 10 13 13 16 17 16 14 12 13 11 9 9
17 15 14 15 14 12 10 6 5 5 7 4 3 5 3 6 9 11 10 8 9 10 9 10 9 9 10 11 10 9 6 9 12 11 9 13 15 14 12 10 10 8 7
17 16 15 16 14 13 12 10 6 5 9 9 6 4 5 2 5 8 8 7 6 6 8 6 7 6 6 9 10 10 10 6 10 13 9 9 12 12 11 9 7 6 6

GFSSE_500_spd_096.txt.gz
Wind_Speed
15 18 17 16 15 13 11 10 9 8 7 7 8 9 9 9 8 8 9 9 9 9 11 12 11 11 12 12 13 13 13 13 12 13 13 15 15 16 16 17 18 17 17
16 16 16 16 14 12 9 8 8 7 6 6 7 7 7 7 7 7 8 8 8 8 10 11 12 12 13 12 14 14 13 12 14 13 14 15 16 17 17 18 18 17 16
15 15 14 14 12 10 8 7 6 6 5 5 6 6 7 7 7 7 6 6 6 8 10 12 12 12 12 11 14 14 15 14 14 14 15 16 17 17 18 18 17 17 16
16 14 13 12 10 8 7 7 7 7 6 6 7 8 8 7 7 6 6 6 6 7 8 11 11 13 13 12 14 14 15 14 15 14 15 17 17 16 18 18 17 17 16
16 13 12 11 10 9 9 10 10 8 8 9 9 8 9 8 7 6 7 7 6 7 7 9 13 15 16 13 14 16 16 17 17 14 16 16 16 16 17 16 16 16 16
15 13 12 11 12 12 11 12 11 10 11 11 10 9 8 7 6 6 4 5 6 7 7 9 14 17 16 15 13 17 16 18 16 14 15 14 16 15 15 15 15 15 15
16 14 13 13 13 14 14 13 13 12 13 11 9 10 9 8 8 7 3 3 4 5 8 10 15 20 18 16 15 16 16 16 14 14 15 13 15 15 14 14 15 16 16
17 15 15 14 16 16 15 14 14 12 12 12 11 11 10 10 9 9 6 2 5 9 10 15 17 18 18 16 15 16 15 14 12 13 14 13 14 14 15 14 14 15 15
16 16 16 17 17 16 15 13 13 13 13 12 12 12 13 12 12 11 13 11 8 12 15 21 23 20 18 14 15 16 15 14 12 13 14 13 12 13 14 15 15 15 16
15 16 17 18 17 16 13 13 12 11 13 12 13 13 15 14 12 12 16 19 21 19 22 25 23 21 19 16 16 16 15 15 13 15 16 16 13 14 16 16 16 17 18
15 15 17 17 15 15 14 13 12 12 12 10 12 13 16 14 14 16 16 19 23 25 24 22 20 16 15 16 16 15 15 16 16 18 20 22 22 23 22 21 19 21 21
14 16 16 15 15 15 16 14 12 11 11 12 11 15 18 15 19 19 15 12 19 17 18 18 17 15 14 17 18 17 18 19 17 21 25 28 29 29 29 26 24 23 22
13 15 15 13 14 13 13 13 13 10 10 12 11 16 20 17 18 17 18 19 18 17 17 18 17 16 15 16 21 20 22 20 24 26 28 29 29 30 29 27 25 23 23
11 13 12 13 11 14 10 11 13 11 9 12 13 18 18 20 13 22 15 20 21 21 20 20 20 20 17 21 23 23 24 26 25 25 26 26 27 27 27 27 25 24 23
10 10 12 10 11 12 10 13 12 12 11 10 15 17 18 19 18 22 20 20 20 23 23 25 24 22 22 21 21 22 23 25 24 24 24 24 25 26 25 25 24 23 22
9 8 9 9 8 8 11 13 11 12 12 9 15 16 16 20 23 24 24 19 18 19 22 23 21 21 19 20 23 24 24 24 25 24 23 23 25 25 25 23 23 22 22
9 7 10 7 6 9 11 13 11 12 11 14 13 15 19 17 20 22 21 20 19 18 20 22 20 21 22 23 25 24 24 24 23 25 24 25 24 23 23 23 22 22 22
4 7 7 6 4 7 11 11 8 11 13 14 14 15 18 18 16 23 19 21 19 19 21 22 24 23 24 24 25 24 23 24 25 26 25 25 23 22 22 22 22 22 21
4 4 6 7 5 6 7 10 10 12 11 12 15 15 16 17 17 17 20 19 21 20 22 23 24 24 23 24 22 24 23 24 25 24 24 24 23 22 21 21 21 20 18
7 5 4 4 5 7 7 7 10 10 11 7 12 12 15 17 17 16 19 21 19 20 21 24 22 20 21 21 19 20 23 25 25 24 22 23 22 21 21 19 19 18 16
6 7 4 3 4 4 6 6 8 11 12 10 11 8 12 11 14 15 15 20 20 19 19 20 20 19 19 19 17 16 20 24 25 24 23 23 21 19 18 17 17 15 13
9 7 7 5 5 3 3 6 6 9 11 10 9 10 10 13 11 15 14 16 18 16 18 17 15 16 15 14 14 13 16 19 22 22 23 23 20 18 15 14 13 12 9
11 10 9 7 6 5 3 4 5 8 9 9 8 9 10 11 11 13 12 14 14 15 17 17 13 11 13 11 8 8 10 15 18 19 21 20 18 18 15 14 12 9 7
14 12 10 10 9 7 4 3 5 8 7 7 9 8 5 9 12 10 13 13 14 14 13 14 15 11 11 11 8 6 6 6 12 14 17 18 16 15 14 12 11 9 6
17 16 13 13 12 10 8 4 3 4 7 7 7 8 8 4 9 11 12 12 14 13 13 12 10 10 9 12 12 6 4 7 9 9 11 13 14 14 15 12 11 9 6
15 16 15 14 14 13 12 9 5 4 6 9 9 9 7 7 8 10 10 11 8 12 9 12 11 11 9 9 11 10 7 7 9 9 10 10 9 10 11 10 7 5 5

GFSSE_500_spd_102.txt.gz
Wind_Speed
15 14 15 14 14 14 13 12 11 10 10 9 9 9 7 8 8 9 9 10 12 11 12 12 13 13 14 15 15 17 16 15 16 17 18 18 19 19 18 18 18 17 16
16 14 15 14 12 11 10 10 9 9 8 8 8 8 8 7 8 8 8 8 9 11 12 11 12 12 13 14 15 16 16 16 17 17 19 20 20 18 17 18 17 16 15
13 13 13 12 11 11 11 11 10 9 8 8 6 7 8 8 9 8 8 8 8 10 11 11 12 13 12 13 14 16 16 19 18 18 18 20 19 18 18 18 16 15 17
11 12 12 12 12 13 13 12 11 11 10 9 9 9 9 9 9 8 8 8 8 8 10 10 11 12 12 12 15 16 18 19 19 18 18 19 19 18 19 18 15 16 17
10 11 12 12 13 13 13 12 11 11 11 10 9 8 8 7 6 6 8 8 9 8 7 10 11 13 13 13 16 17 18 19 18 17 17 18 19 19 19 17 15 16 17
9 12 12 14 15 15 12 12 12 12 12 10 9 8 8 6 4 3 6 6 8 9 8 12 13 14 15 15 17 18 19 19 17 17 17 17 19 17 16 16 16 17 18
11 14 14 15 15 15 14 14 14 13 12 11 10 9 8 5 2 2 3 6 9 8 10 12 13 13 15 16 16 16 17 18 15 15 15 17 18 18 17 17 17 18 19
12 15 15 15 17 16 15 16 16 14 14 13 11 10 10 10 10 4 4 7 12 11 14 15 15 14 18 13 13 14 16 15 14 13 14 15 17 18 17 18 19 19 18
14 15 15 17 18 16 15 16 16 15 14 13 13 12 10 13 13 6 11 10 12 12 15 15 14 15 15 13 13 11 14 13 12 13 14 15 17 18 18 19 20 18 19
15 16 17 18 18 17 14 14 15 14 14 14 14 12 16 20 21 13 17 17 18 18 19 16 14 15 14 13 13 12 12 12 11 12 14 16 17 18 19 20 19 20 20
17 18 19 19 17 16 14 14 15 14 15 15 15 17 17 20 22 23 22 24 23 24 19 17 15 14 14 14 13 12 13 10 9 14 16 17 19 20 21 20 20 20 19
17 18 17 16 16 15 14 14 15 14 15 15 17 19 17 15 20 23 24 24 25 22 18 15 14 13 14 15 15 14 13 11 12 16 20 21 21 22 21 21 21 19 19
16 16 16 15 14 14 13 13 14 13 15 16 18 21 21 20 19 18 21 19 20 19 17 15 15 16 16 16 17 17 18 18 20 22 25 26 25 23 23 22 20 19 19
14 14 15 15 15 14 12 12 14 12 16 13 16 21 18 20 21 19 19 18 17 17 17 17 17 19 19 18 19 20 21 22 25 27 28 27 25 24 23 21 20 20 20
12 13 15 15 16 14 11 10 13 13 16 16 14 17 20 19 21 21 22 21 21 21 20 20 21 21 21 20 20 20 20 22 25 26 26 26 25 24 22 21 21 21 21
13 10 14 14 15 13 12 9 12 14 15 14 18 20 19 19 20 22 22 23 23 24 22 22 18 17 19 19 19 18 17 19 23 25 26 26 25 23 22 22 22 22 23
16 12 13 12 13 12 13 11 12 13 15 15 18 17 17 18 18 19 20 20 21 21 20 21 20 19 18 17 17 17 17 18 21 25 25 25 23 23 22 21 21 23 24
15 14 11 10 11 11 12 13 13 14 14 14 12 13 16 15 15 16 17 20 19 19 19 20 20 17 16 15 16 14 15 18 22 24 24 24 24 23 21 20 21 22 23
16 15 12 10 11 11 10 14 14 14 13 12 11 11 14 15 14 14 16 18 18 18 18 18 19 17 15 15 15 15 15 16 20 22 21 21 21 19 18 19 19 20 21
15 14 13 13 11 10 10 11 13 13 13 12 12 11 10 13 14 15 14 15 16 16 14 15 16 15 13 11 12 16 17 16 15 17 18 18 18 18 17 16 16 17 17
14 13 12 12 10 12 9 11 11 11 12 13 11 13 12 11 13 14 14 14 15 16 15 14 15 14 13 14 13 14 16 15 14 13 13 14 15 15 14 14 12 13 12
16 15 13 11 9 13 11 9 11 11 12 13 12 11 12 12 12 12 12 13 13 13 14 14 14 13 12 14 16 15 15 14 13 12 10 11 12 12 11 9 9 9 9
19 17 15 12 12 10 12 8 9 10 13 13 12 13 11 11 11 11 12 12 11 11 13 12 10 11 12 12 14 15 14 13 13 11 10 9 10 9 8 7 7 6 7
18 17 18 14 12 11 9 9 9 8 10 12 13 11 11 11 9 10 10 10 10 9 9 10 9 7 9 10 13 13 12 12 12 11 9 8 7 5 5 4 2 3 4
17 16 18 18 15 11 10 10 11 9 10 12 14 13 13 12 10 11 10 9 9 9 8 8 7 6 8 8 10 13 12 12 10 11 9 6 4 3 2 1 2 2 3
16 16 17 18 18 16 13 10 10 9 9 10 11 13 14 13 13 12 11 10 10 10 9 9 7 5 4 6 10 13 14 13 12 11 10 8 7 6 4 3 4 4 4

GFSSE_500_spd_105.txt.gz
Wind_Speed
15 13 13 14 12 11 11 11 10 10 11 11 11 9 9 9 9 10 10 10 12 12 12 12 12 13 12 12 12 15 16 15 16 17 18 19 19 18 17 17 16 14 14
15 14 12 12 10 9 9 9 9 8 9 8 8 9 9 8 9 9 10 10 11 12 12 12 12 12 12 12 13 14 15 15 17 17 19 20 18 18 18 15 14 15 17
13 11 11 11 9 9 9 9 8 8 7 9 9 9 9 9 9 9 10 10 10 10 11 11 11 11 12 12 13 13 16 17 18 18 19 19 18 18 17 15 16 18 18
11 11 11 10 10 10 11 10 10 10 9 8 9 9 9 8 8 10 10 11 10 9 10 11 11 11 10 11 13 14 16 17 18 18 18 20 20 18 17 16 17 16 17
10 11 11 10 11 11 12 11 11 11 11 9 8 7 8 8 7 12 11 11 10 9 9 9 10 12 13 13 14 16 16 17 18 18 19 20 19 18 16 16 17 18 19
9 12 12 11 12 13 13 12 12 12 11 10 8 6 6 8 8 7 13 11 12 11 10 12 13 15 15 15 16 17 17 17 17 18 18 19 19 17 16 16 18 20 18
10 12 13 13 13 14 14 13 13 12 11 9 7 5 3 7 7 8 10 10 11 13 14 14 15 16 17 16 16 16 17 17 17 17 17 18 18 18 17 18 19 17 17
12 13 13 13 13 14 14 14 13 13 11 9 7 5 7 9 7 9 12 12 12 15 15 14 17 17 16 15 13 14 15 16 16 15 16 17 18 18 18 19 18 17 17
14 13 13 13 13 15 14 14 14 14 12 9 7 11 16 11 9 8 13 15 15 16 17 15 17 17 15 13 12 12 13 15 15 15 15 16 18 18 19 17 18 18 16
16 15 14 13 14 15 15 15 16 14 13 14 14 19 21 17 15 14 14 17 18 19 19 15 15 15 13 13 12 12 13 14 15 15 15 16 18 19 18 18 19 18 17
17 16 15 14 14 15 17 16 16 15 18 18 18 20 21 23 20 19 18 20 23 20 17 15 14 14 13 13 11 11 12 12 15 15 16 18 18 18 18 19 18 18 20
15 14 14 15 15 15 16 17 16 17 18 18 18 16 19 23 25 23 23 24 22 19 16 14 13 12 12 12 12 11 10 13 16 17 18 19 19 18 19 18 19 20 21
14 15 14 13 14 15 15 17 17 19 17 17 19 19 20 19 22 25 24 21 18 17 15 14 13 13 13 12 12 10 13 16 19 21 21 21 19 19 19 19 21 21 21
13 15 15 14 13 15 14 18 18 16 14 15 17 20 20 19 20 20 20 18 15 14 14 14 14 15 14 14 14 15 19 22 24 25 23 21 20 19 19 21 21 21 21
14 14 15 13 13 14 14 18 18 18 16 13 18 20 19 19 19 18 19 17 17 17 16 16 15 16 16 16 17 19 22 24 25 24 23 21 20 20 20 21 21 21 21
13 12 14 13 14 14 14 17 16 17 17 17 19 20 21 20 19 20 21 20 20 19 18 17 16 16 15 16 18 19 20 21 23 23 22 21 20 21 21 22 21 21 21
14 12 14 13 13 14 15 16 16 17 18 16 18 18 18 19 18 19 21 21 21 20 20 19 17 16 13 13 16 16 16 17 20 22 21 20 20 21 21 21 21 20 21
14 10 14 13 13 14 15 16 15 17 15 15 16 17 17 17 16 14 16 17 17 18 17 17 15 14 13 14 16 16 15 16 18 19 20 20 20 19 19 20 19 20 21
15 11 12 13 14 13 14 14 13 15 16 14 16 15 16 15 15 15 14 14 15 16 16 16 15 15 14 14 16 16 16 16 16 16 17 17 18 17 17 17 17 18 20
15 11 10 11 14 13 12 12 11 13 14 15 15 15 14 13 14 14 13 13 14 14 13 12 13 13 14 14 15 18 18 16 15 14 16 16 15 15 15 14 14 16 17
16 15 11 10 12 13 11 11 12 11 11 14 12 13 14 14 14 13 12 13 13 13 14 13 12 12 12 13 15 16 17 15 14 13 14 14 13 12 12 12 12 14 14
16 16 14 11 10 11 11 11 12 13 12 12 11 10 11 12 13 12 11 11 11 10 10 10 9 9 9 10 11 13 15 14 13 12 12 11 11 11 10 9 10 10 10
16 15 15 13 11 9 10 11 9 11 12 11 10 11 10 10 12 12 12 11 11 10 9 9 8 6 7 8 10 11 12 13 12 11 11 10 9 8 8 7 8 7 7
16 16 15 15 12 10 9 10 10 10 11 13 13 12 11 11 11 11 10 10 9 9 9 8 8 7 7 8 8 10 10 11 11 10 8 8 7 5 3 3 5 4 3
18 18 17 17 15 12 10 10 10 10 9 11 12 11 11 11 12 12 11 10 11 9 8 7 7 6 6 8 9 10 10 9 10 9 8 7 7 5 3 1 1 0 2
20 21 19 18 17 15 12 14 11 9 8 9 10 12 12 11 10 11 11 10 11 10 8 6 5 6 6 7 9 11 12 11 9 9 8 7 6 6 5 4 3 2 2

GFSSE_500_spd_108.txt.gz
Wind_Speed
13 11 11 9 10 11 12 12 13 13 12 11 10 10 11 11 10 9 9 10 10 11 11 12 11 11 10 9 10 12 12 12 13 15 17 17 18 17 16 14 13 13 12
12 10 8 8 9 9 9 9 10 11 11 10 10 8 8 8 9 8 9 9 10 11 11 11 11 10 10 9 11 13 14 14 14 15 17 17 17 17 14 13 14 14 12
9 8 6 7 7 7 8 8 9 10 10 9 9 10 9 8 9 8 10 10 10 11 10 11 11 10 11 12 12 13 14 15 14 16 16 17 17 14 14 16 15 14 13
8 7 6 8 6 6 7 9 9 9 10 10 8 8 9 10 10 11 11 11 10 9 10 11 12 12 12 12 12 13 15 15 15 14 16 17 16 15 15 15 14 14 14
9 7 7 8 8 8 8 9 8 9 9 9 9 9 8 10 13 12 12 11 11 10 10 10 12 13 13 13 13 14 16 16 16 15 17 17 16 15 15 13 16 16 13
9 8 8 9 9 8 8 9 9 8 6 6 6 7 7 9 18 14 13 12 12 12 12 13 16 15 14 14 14 15 17 17 16 16 16 16 16 15 14 16 17 15 14
10 10 10 11 10 9 9 8 8 7 8 6 5 7 10 11 14 17 13 13 13 15 15 16 17 17 16 15 15 16 17 17 17 16 15 15 15 15 18 16 15 15 14
10 11 11 12 12 10 10 10 9 7 5 3 3 1 7 11 11 15 15 14 15 16 16 16 17 17 16 16 15 15 17 18 17 16 15 15 15 16 17 15 15 14 12
10 11 12 12 12 12 12 11 9 7 3 3 11 11 10 12 11 15 15 16 17 17 15 16 18 15 15 15 15 15 17 18 17 16 15 15 16 16 15 16 15 13 13
11 11 12 12 14 12 12 13 13 15 22 18 18 13 13 14 12 16 17 17 19 18 16 16 16 15 12 13 14 15 17 18 18 16 14 14 15 14 15 15 15 15 17
12 12 12 13 15 14 13 14 17 16 15 16 18 18 16 18 18 19 18 20 20 18 15 14 13 12 11 11 12 14 16 18 18 17 15 15 15 14 15 15 16 18 19
10 12 13 13 15 16 15 15 17 16 16 14 18 21 19 19 19 20 21 22 19 16 14 12 11 11 10 10 10 11 14 17 18 17 15 15 15 15 15 16 17 18 19
11 10 11 13 16 17 17 16 19 16 17 19 18 19 21 22 23 24 22 20 17 14 13 12 11 11 11 10 9 10 15 18 19 17 16 15 15 15 16 17 17 17 18
13 11 11 12 16 17 17 14 14 18 17 18 17 17 19 21 21 20 18 16 14 12 13 13 13 13 13 14 15 17 20 21 20 17 17 16 16 16 17 17 17 17 18
14 12 11 12 15 17 18 17 16 16 18 19 19 18 16 17 16 15 15 14 13 14 15 15 15 16 16 17 20 22 23 23 20 18 17 17 17 17 18 18 18 19 20
14 12 12 13 14 17 18 15 17 20 20 20 20 18 18 17 16 16 16 15 15 17 16 15 16 16 16 17 20 22 22 21 20 18 17 18 18 18 18 19 19 21 21
13 12 12 13 14 16 18 16 18 19 20 19 19 19 19 19 18 17 17 17 17 17 16 15 15 15 15 16 18 19 19 18 18 17 17 17 18 19 19 19 20 21 22
12 11 11 12 13 15 17 16 16 16 17 19 18 18 17 18 18 17 16 16 15 15 15 13 12 13 13 14 16 17 15 15 14 15 17 18 18 18 18 18 20 20 20
10 11 11 11 13 14 15 15 14 14 15 18 17 16 15 14 15 14 13 13 13 13 12 11 12 13 14 14 16 17 17 15 14 15 16 17 17 17 16 17 18 18 18
10 10 11 12 12 13 13 13 13 14 13 14 15 16 16 15 13 12 13 12 11 11 10 10 11 13 14 15 16 17 17 15 14 15 16 16 16 15 14 15 15 15 15
11 11 11 12 12 12 11 11 12 13 13 13 12 13 14 15 13 12 13 12 11 11 11 10 10 12 14 15 18 18 17 15 14 13 14 14 14 13 12 13 11 12 12
12 11 12 12 12 11 11 11 12 13 12 13 13 12 12 13 13 13 13 12 12 12 11 10 11 11 12 13 13 15 15 14 13 12 12 12 13 12 10 10 8 8 9
15 12 11 12 11 13 11 11 11 12 12 11 11 12 12 11 11 12 10 9 10 10 9 9 11 11 11 11 11 10 10 11 10 9 9 9 10 10 9 8 5 5 6
17 15 13 12 12 12 12 12 11 12 11 11 11 11 11 11 11 9 9 8 8 9 9 7 8 9 10 10 9 8 8 7 6 6 5 5 6 6 6 5 4 2 2
20 17 15 13 12 13 13 11 10 11 11 11 9 9 10 10 10 10 9 9 8 7 7 7 7 8 8 9 9 9 8 7 6 6 5 5 5 6 6 5 4 2 3
21 20 19 17 14 12 12 12 10 10 11 13 12 11 10 10 11 11 9 9 8 7 7 6 6 6 8 9 11 11 11 10 9 8 6 5 5 6 5 6 4 3 3

GFSSE_500_spd_111.txt.gz
Wind_Speed
11 11 11 10 10 12 13 13 11 11 10 10 10 10 11 10 9 7 6 8 8 9 10 10 9 10 11 11 12 11 12 13 13 14 15 16 15 13 12 11 11 10 9
9 8 8 8 9 9 10 10 11 10 8 8 8 8 8 8 9 9 8 9 9 9 9 8 9 10 10 9 10 12 12 12 13 14 14 15 14 12 11 11 12 11 9
6 6 6 7 8 8 9 9 9 8 9 8 8 9 9 9 8 8 8 9 10 11 10 10 9 11 11 10 11 12 12 11 12 13 13 13 12 12 13 13 12 12 12
5 5 6 7 7 8 7 8 8 7 7 8 8 7 7 9 9 9 10 10 11 12 8 10 11 12 12 12 12 13 13 13 14 13 13 12 12 13 12 12 13 12 11
6 5 6 6 6 8 8 7 7 8 8 7 6 8 9 10 11 10 10 11 12 12 12 11 13 13 13 13 13 14 14 13 13 14 12 11 11 11 11 13 13 12 12
6 6 6 6 6 7 7 6 6 5 5 5 5 5 5 11 12 12 12 11 13 12 11 13 14 14 14 13 14 14 15 14 14 13 12 11 10 10 12 12 11 12 11
6 6 6 6 7 5 6 5 4 3 5 5 6 6 6 13 13 12 13 14 14 14 14 15 14 14 14 14 14 15 16 15 15 14 11 10 10 12 12 11 12 11 9
6 7 7 7 7 5 6 5 3 2 1 4 6 10 10 10 16 13 13 15 16 15 15 15 15 14 14 14 15 16 17 16 14 13 11 10 11 12 10 12 11 9 8
7 7 8 7 8 7 7 6 2 1 2 4 3 8 13 13 14 13 13 15 16 14 15 15 15 13 13 13 13 14 16 16 15 13 12 10 12 11 12 11 9 10 12
6 8 9 9 8 9 9 9 16 17 15 12 8 11 15 13 15 14 15 17 16 14 15 14 12 11 11 12 12 13 15 16 15 14 11 11 12 13 12 10 12 14 17
7 8 10 10 9 10 10 11 12 13 13 15 15 14 15 14 17 17 16 17 16 14 14 12 11 9 10 11 12 13 15 15 14 13 11 11 13 12 11 12 15 17 18
8 8 9 10 10 10 11 11 13 13 15 20 13 22 20 17 19 18 17 17 14 13 13 11 10 10 9 9 11 13 15 15 15 13 12 12 13 12 12 15 17 17 18
7 8 10 11 10 11 14 12 13 17 17 22 21 18 17 18 19 19 19 15 12 12 11 9 9 9 11 11 12 14 16 16 16 14 13 13 12 13 15 16 16 17 18
8 8 11 12 11 10 10 13 14 15 17 19 24 21 21 22 21 18 15 13 12 12 15 14 10 11 11 13 16 17 18 18 16 15 15 14 14 16 17 17 16 17 17
9 9 11 11 11 12 12 12 15 16 16 18 19 19 19 18 17 16 13 12 13 14 15 14 14 15 15 18 21 21 21 19 17 16 15 15 17 19 18 18 18 19 20
10 10 11 12 12 13 14 13 16 17 17 18 17 15 15 15 14 14 15 16 15 17 17 17 17 18 18 21 23 23 21 19 18 16 16 17 19 19 19 19 19 21 21
10 11 11 12 11 13 15 16 15 17 17 19 18 17 17 17 15 15 15 16 17 18 17 17 15 17 18 21 23 23 21 18 17 16 17 18 18 19 18 18 20 20 19
8 10 12 11 11 13 15 15 15 15 15 17 18 16 17 17 17 15 14 14 14 16 16 14 13 14 16 19 21 21 19 17 16 16 17 17 18 17 17 18 18 18 18
8 8 10 11 11 12 13 14 15 15 14 14 15 15 15 15 14 12 11 11 11 13 13 12 12 12 13 16 19 18 18 18 17 16 16 16 16 16 15 17 16 16 15
8 8 9 11 11 12 12 12 13 14 13 13 13 13 14 14 13 12 12 12 12 12 13 12 12 13 13 12 17 17 16 17 16 15 15 15 15 14 12 13 12 12 12
8 8 9 10 11 12 13 12 11 11 12 12 13 12 12 13 13 12 11 12 16 12 12 11 12 13 13 15 15 17 17 16 15 13 14 13 12 11 9 9 8 9 8
11 10 10 10 10 10 11 13 12 11 11 12 13 13 12 13 12 12 10 11 11 12 11 10 11 11 14 15 13 16 15 14 13 12 12 11 10 9 7 5 4 5 5
12 12 11 11 11 10 9 10 12 11 10 10 9 11 11 12 12 10 9 9 9 11 8 8 9 11 10 13 14 10 12 13 11 9 9 9 8 7 6 4 2 1 2
15 12 12 11 12 11 11 9 11 10 10 10 10 9 9 10 10 9 8 7 8 9 8 7 7 8 9 9 10 11 12 11 9 8 7 7 7 6 6 5 5 3 2
15 14 12 11 12 12 11 11 11 10 10 10 10 10 9 8 8 7 6 7 7 7 7 6 5 6 7 7 7 6 6 7 7 6 4 5 7 6 7 8 7 6 3
17 17 15 13 12 12 13 11 11 12 10 9 8 8 8 8 7 6 5 3 4 3 4 4 3 3 5 6 7 7 5 2 6 5 4 5 7 7 8 9 7 7 5

GFSSE_500_spd_114.txt.gz
Wind_Speed
11 12 11 10 8 7 7 7 8 8 8 10 11 9 7 8 11 10 9 9 11 13 14 14 13 11 12 12 12 13 14 14 15 15 15 16 15 13 12 12 11 10 10
9 9 9 9 7 6 6 7 7 7 7 8 9 9 8 8 8 7 8 9 11 12 11 12 11 11 12 12 11 12 12 14 15 17 16 14 13 13 12 12 11 11 12
8 8 7 7 7 5 6 7 6 6 5 4 5 6 7 7 7 7 8 9 12 12 11 12 11 11 11 11 12 12 13 13 13 18 16 13 13 14 13 11 12 12 11
7 7 6 7 8 6 5 5 6 6 5 5 5 6 6 7 8 8 8 10 12 12 11 12 12 12 11 11 13 13 14 9 20 18 15 15 14 13 13 12 12 11 11
8 7 7 7 7 6 5 5 5 5 6 6 5 5 6 7 7 8 8 9 11 12 9 11 12 13 12 12 14 13 14 13 16 16 15 13 12 12 13 12 12 12 12
6 7 6 7 6 5 5 5 5 4 4 3 3 4 4 8 8 9 10 10 10 10 9 11 12 14 14 14 15 15 14 15 14 16 12 11 12 13 12 11 11 12 12
5 6 6 6 7 6 5 3 3 3 4 3 3 3 3 9 9 9 10 10 10 10 12 13 13 13 13 14 15 16 16 16 14 12 11 12 14 13 12 12 11 12 12
5 6 6 8 8 7 5 4 2 1 4 5 6 6 5 15 11 9 13 13 13 15 15 15 14 14 14 14 15 16 16 17 13 12 12 13 13 12 12 11 12 13 15
3 5 8 8 7 7 6 12 3 3 6 7 4 8 10 15 13 12 13 15 14 14 15 15 14 13 13 14 14 15 14 14 13 13 14 13 13 13 12 12 15 18 19
6 3 12 8 7 7 8 11 11 12 8 7 10 16 14 14 14 15 14 15 15 15 15 15 13 13 13 13 15 14 14 14 13 14 14 13 14 13 14 16 18 19 21
7 10 9 7 7 8 8 6 9 9 10 11 15 16 13 15 14 15 15 16 15 16 14 13 13 12 11 12 14 15 14 13 13 14 14 15 14 14 16 18 19 20 21
7 7 7 7 9 8 5 9 8 14 16 17 19 14 25 16 15 15 16 14 14 14 11 9 11 13 12 11 12 14 14 13 13 14 15 15 14 16 17 17 19 20 21
8 8 8 8 12 12 6 10 9 15 20 23 26 24 17 18 16 17 15 13 14 11 9 9 10 12 12 11 14 15 14 13 14 16 15 15 16 17 17 17 19 21 22
8 10 7 9 10 11 12 11 9 15 19 26 24 21 18 21 19 16 13 15 17 13 13 10 9 12 14 14 16 16 15 15 15 16 17 16 17 17 17 18 20 21 20
8 11 7 9 11 13 13 11 11 9 16 19 26 25 20 19 18 15 13 11 10 17 15 12 11 11 16 18 19 19 18 16 16 17 17 18 18 18 20 20 20 19 19
9 10 10 10 12 12 12 14 13 13 12 18 20 17 16 16 15 14 14 16 10 17 20 15 15 18 20 24 22 19 18 19 19 17 18 18 18 20 20 19 18 18 17
9 10 10 10 10 13 14 13 15 17 14 15 16 16 15 15 15 15 17 17 17 18 17 17 19 20 23 25 24 20 21 19 21 19 18 18 18 19 19 17 17 16 15
8 8 10 10 11 12 13 14 13 17 17 17 18 19 17 16 16 16 17 17 18 16 17 15 17 19 24 25 22 20 20 20 19 20 18 16 17 16 15 15 14 13 12
8 8 10 11 11 11 11 12 14 15 16 16 17 18 18 17 15 16 16 16 16 16 15 13 13 13 17 21 23 21 19 19 18 18 17 14 16 13 14 13 12 11 10
7 7 8 10 11 11 11 12 12 13 14 16 16 16 15 14 13 14 14 15 16 14 13 13 10 14 12 14 17 20 18 18 17 16 15 13 13 12 11 9 8 8 8
7 7 8 10 11 10 11 10 12 12 12 12 14 14 13 12 12 13 14 13 13 20 15 16 13 9 11 13 11 18 18 17 16 15 14 12 11 10 8 7 5 4 5
8 7 7 8 9 10 9 11 11 11 10 11 11 12 13 12 10 13 11 9 12 17 12 12 14 9 11 14 8 9 18 18 15 13 12 10 8 8 6 4 2 3 4
9 8 7 7 8 9 9 7 8 9 10 10 9 9 10 9 7 7 9 3 13 9 9 11 11 12 6 10 15 14 8 14 18 13 10 9 7 5 4 2 0 4 6
13 9 8 8 7 7 9 8 9 9 8 7 8 9 9 9 9 5 5 8 7 4 7 8 9 7 7 11 11 12 13 10 13 10 8 7 6 5 4 3 3 4 7
13 11 9 8 7 6 6 7 9 8 8 7 5 5 8 8 7 7 6 8 9 8 7 8 9 6 3 6 6 10 9 4 3 10 11 7 7 5 7 5 5 4 6
15 14 11 10 10 9 7 7 8 8 11 8 8 7 7 7 6 3 4 5 6 7 6 7 6 4 2 3 2 2 1 3 8 8 17 6 9 11 12 11 5 3 5